Regional Weather Roundup
Issued by NWS Upton, NY

Current Version | Previous Version | Graphics & Text | Print | Product List | Glossary Off
Versions: 1 2 3 4 5 6 7 8 9 10 11 12 13 14 15 16 17 18 19 20 21 22 23 24 25 26 27 28 29 30 31 32 33 34 35 36 37 38 39 40 41 42 43 44 45 46 47 48 49 50

000
ASUS41 KOKX 241908
RWROKX

REGIONAL WEATHER ROUNDUP
NATIONAL WEATHER SERVICE NEW YORK NY
200 PM EST TUE JAN 24 2017

NOTE: "FAIR" INDICATES FEW OR NO CLOUDS BELOW 12,000 FEET WITH NO
SIGNIFICANT WEATHER AND/OR OBSTRUCTIONS TO VISIBILITY.

NYZ071-072-176-178-NJZ106-104-242000-
NEW YORK CITY METRO AREA

CITY           SKY/WX    TMP DP  RH WIND       PRES   REMARKS
Central Park   LGT RAIN  36  35  96 NW8       29.34R FOG     WCI  30
Wall St Helipt RAIN      38  36  92 VRB6      29.33R FOG     WCI  33
LaGuardia APRT CLOUDY    39  34  82 N22       29.31S HAZE    WCI  29
Kennedy INTL   LGT RAIN  38  36  92 N21G30    29.30R FOG     WCI  28
Breezy Point     N/A     36 N/A N/A NW15G22     N/A  WCI  26
Newark/Liberty RAIN      38  35  89 NW18G26   29.34R FOG     WCI  28
Teterboro      NOT AVBL
$$

NYZ177-179-078>081-242000-
LONG ISLAND NEW YORK

CITY           SKY/WX    TMP DP  RH WIND       PRES   REMARKS
Jones Beach      N/A     37 N/A N/A N21G29      N/A  WCI  27
Matinecock PT  NOT AVBL
Farmingdale    CLOUDY    38  36  92 N21G28    29.26R WCI  28
MacArthur/ISP  LGT RAIN  38  37  97 N23G33    29.21F FOG     WCI  27
Shirley        LGT RAIN  39  38  96 N22       29.21F FOG     WCI  29
Westhampton    CLOUDY    41  39  93 N18G26    29.20F
Southampton    NOT AVBL
Bridgehampton  NOT AVBL
East Hampton   CLOUDY    42  41  93 N10G20    29.19S FOG
Montauk          N/A     45  42  89 N14G24    29.19F
$$

NYZ052-065-067-242000-
HUDSON VALLEY

CITY           SKY/WX    TMP DP  RH WIND       PRES   REMARKS
White Plains   DRZL/FOG  36  34  92 N16G24    29.28S VSB 3/4 WCI  26
Newburgh       DRIZZLE   36  34  93 N10G18      N/A  FOG     WCI  28
Montgomery     LGT RAIN  37  34  89 N5        29.37R WCI  33
Poughkeepsie   CLOUDY    35  31  85 N10G23    29.35F WCI  27
Albany         LGTSLEET  34  31  88 N12       29.45F FOG     WCI  25
$$

NJZ001-105-106-008-010-013-015-019>022-104-242000-
NEW JERSEY

CITY           SKY/WX    TMP DP  RH WIND       PRES   REMARKS
Newark/Liberty RAIN      38  35  89 NW18G26   29.34R FOG     WCI  28
Teterboro      NOT AVBL
Caldwell       RAIN      37  34  89 N6        29.36S FOG     WCI  32
Somerville     LGT RAIN  39  35  86 N10       29.35S FOG     WCI  32
Linden         NOT AVBL
Sussex         LGT RAIN  37  35  92 N7        29.36F FOG     WCI  32
Andover          N/A     36  33  89 N7G17     29.37F WCI  30
Trenton        CLOUDY    41  36  82 NW13G21   29.35S
Millville      CLOUDY    43  38  82 NW14G20   29.38S
Atlantic City  CLOUDY    41  37  86 NW20G26   29.34S
Wrightstown    RAIN      39  37  93 NW13G22   29.33R WCI  31
Toms River     LGT RAIN  38  36  92 NW14      29.33R FOG     WCI  30
Belmar         LGT RAIN  37  36  96 NW15G28   29.32R WCI  28
$$

PAZ047>061-062-071-242000-
EASTERN PENNSYLVANIA

CITY           SKY/WX    TMP DP  RH WIND       PRES   REMARKS
Philadelphia   CLOUDY    46  35  65 NW17      29.39S
Allentown      CLOUDY    42  33  70 NW14      29.40S
Scranton       LGT RAIN  37  32  82 NW14      29.44R WCI  28
$$

CTZ002-004>006-009-010-012-RIZ004-006-007-MAZ004-011-015-242000-
SOUTHERN NEW ENGLAND
 IN CT

CITY           SKY/WX    TMP DP  RH WIND       PRES   REMARKS
Bradley INTL   LGT RAIN  36  30  79 N17G25    29.31F WCI  26
Hartford       LGT RAIN  37  32  82 N16G24    29.30F WCI  28
Danbury        LGT RAIN  36  33  89 N10       29.31S FOG     WCI  28
Wtrbury/Oxford CLOUDY    36  28  75 NE17G30   29.27R WCI  25
Bridgeport     CLOUDY    40  34  79 N14G23    29.27S WCI  32
Meriden        CLOUDY    38  31  76 N14G20    29.28S WCI  30
New Haven      CLOUDY    39  34  82 N22G31    29.22F WCI  29
Chester        MIX PCPN  39  36  87 N16G23    29.23F WCI  30
Groton         LGT RAIN  44  40  85 N24G30    29.19S
Wilimantic     LGT RAIN  38  34  85 NE14G23   29.28F FOG     WCI  30

 IN RI

CITY           SKY/WX    TMP DP  RH WIND       PRES   REMARKS
Providence     LGT RAIN  44  40  85 N26G37    29.24F FOG
Block Island   NOT AVBL
Westerly       CLOUDY    45  40  82 N15G26    29.21S
 IN MA

CITY           SKY/WX    TMP DP  RH WIND       PRES   REMARKS
Boston         HVY RAIN  39  38  96 N25G32    29.31F FOG     WCI  28
Worcester      FRZ RAIN  30  29  96 N18G36    29.29F FOG     WCI  18
Westfield      CLOUDY    35  30  82 N18G26    29.34F WCI  24
Provincetown   LGT RAIN  46  46 100 N13       29.23F VSB 3/4
Nantucket      FOG       52  50  93 E14       29.15F VSB 1
$$

ANZ330-335-338-340-345-350-353-355-242000-
COASTAL MARINE OBSERVATIONS


STATION/POSITION TIME  SKY/WX   TEMP    WIND        PRES    VSBY  WAVE
                                AIR SEA DIR/SP/G                  HT/PER
                 (UTC)          (F)     (DEG/KT/KT) (MB)    (MI)  (FT/S)
NY HARB ENTRANCE 1750            38 42  330/ 21/ 25  990.6          9/11
20 S FIRE ISLAND 1850            40 46  350/ 23/ 27  988.8         11/11
GREAT SOUTH BAY  NOT AVBL
23 SSW MONTAUK P 1750            44 46   20/ 27/ 33  987.3         10/11
15 E BARNEGAT LI 1830               45                N/A          12/11
HUDSON CANYON    1750            50 51               984.9         14/11
KINGS POINT      1836               39                N/A
EXECUTION ROCKS  1845            38     330/ 14/ 17   N/A
CENTRAL LI SOUND 1815            41      20/ 17/ 23   N/A           4/ 6
EASTERN LI SOUND NOT AVBL
ROBBINS REEF     1848            37     330/ 17/ 24  993.0
$$


>>>>>>>>>>>>>>>>>>>>>>>>>>>> KEY <<<<<<<<<<<<<<<<<<<<<<<<<<<
>                                                          <
>     SKY/WX - Sky Condition/Present Weather               <
>     TMP    - Temperature in Fahrenheit                   <
>     DP     - Dew Point in Fahrenheit                     <
>     RH     - Relative Humidity in Percent                <
>     WIND   - Direction (from) and Speed in MPH           <
>     PRES   - Mean Sea Level Pressure (inches of Hg)      <
>     WCI    - Wind Chill Index                            <
>     VSB    - VISIBILITY IN MILES                         <
>     HX     - HEAT INDEX                                  <
>     TC     - TEMPERATURE IN CELSIUS                      <
>     VRB    - VARIABLE WIND DIRECTION                     <
>                                                          <
>>>>>>>>>>>>>>>>>>>>>>>>>>>> KEY <<<<<<<<<<<<<<<<<<<<<<<<<<<



USA.gov is the U.S. government's official web portal to all federal, state and local government web resources and services.